OPS 4682 DEB, 19964

Orbit data source: Space-Track

OPS 4682 DEB, 19964 is space debris in LEO originally from a launch on Sat, 03 Apr 1965 UTC launched from the Air Force Western Test Range (AFWTR). Debris objects in space refer to the collection of defunct objects orbiting the Earth. Examples of debris include non-operational satellites, rocket bodies, and fragments generated from explosions, collisions, or faulty payload assembly.

Loading next visibility...
Identifier
19964, 1965-027BA
Orbit
LEO
Country
Flag of USUS
Related business
Manufacturer
Unknown
Mission
Spacecraft
Bus & Motor
Unknown
Mass
Unknown
Launch date (UTC)
1965-04-03 (61 years ago)
Launch vehicle
Unknown
Launch site
Air Force Western Test Range (AFWTR)
Object type
Payload
Rocket body
Debris
Shape & HBR
Unknown shape, 0.1 m
Radar Cross Section
Small (<0.1 m²)

Expand to show TLE details & history
Last TLE update: 3 days ago

TLE from 3 days ago
0 OPS 4682 DEB
1 19964U 65027BA  26033.93780140  .00000675  00000-0  23162-2 0  9999
2 19964  90.2608  13.8693 0018056 166.8988 219.4349 12.96946748534664
Epoch: 2026-02-02T22:30Z
TLE epoch observation values (Epoch: 2026-02-02T22:30:26.040Z)
Latitude
26.23259°
Longitude
-96.99299°
Altitude
1,287.941 km
Speed
7.209 km/s
True Right ascension
00h 54m 57s
True Declination
26° 06' 21"
Sunlit
Object was in daylight at epoch
Visualization orbit readout
Latitude
Unknown
Longitude
Unknown
Altitude
Unknown
Speed
Unknown
Apparent Right ascension
Unknown
Apparent Declination
Unknown
Sunlit
N/A
Visualization observer readout
Local Sidereal Time
16:56:35
Azimuth
Unknown
Elevation
Unknown
Doppler factor
Unknown
Orbital elements
Apogee altitude
1,285.016 km
Perigee altitude
1,257.393 km
Semi-major axis
7,649.341 km
Eccentricity
0.00181
Inclination
90.2608°
RAAN
13.8693°
Arg. of periapsis
166.8988°
True anomaly
219.3037°
Mean anomaly
219.4349°
Eccentric anomaly
219.36928°
Mean motion
3.2442 °/min
Orbital period
110.97 mins
BSTAR
0.0023162
Loading maneuver chart data...
Computing Atmospheric mass density...
Loading historical data...
Loading historical data...
Loading historical data...
Loading historical data...
Loading historical data...
Loading historical data...
Loading historical data...

Documentation

Showing up to 5 results
|